Tracking 33446 objects as of 10-Mar-2026
HD Live streaming from Space Station
objects crossing your sky now

STARLINK-35155

Track STARLINK-35155 now!
10-day predictions
STARLINK-35155 is classified as:


NORAD ID: 65935
Int'l Code: 2025-225AB
Perigee: 481.7 km
Apogee: 483.1 km
Inclination: 53.2 °
Period: 94.1 minutes
Semi major axis: 6853 km
RCS: Unknown
Launch date: October 8, 2025
Source: United States (US)
Launch site: AIR FORCE WESTERN TEST RANGE (AFWTR)
Your satellite tracking list
Your tracking list is empty




NASA's NSSDC Master Catalog

Two Line Element Set (TLE):
1 65935U 25225AB  26068.54405613  .00028604  00000-0  97461-3 0  9994
2 65935  53.1580 166.5057 0001001  83.3005 276.8110 15.30184809 23495
Source of the keplerian elements: AFSPC